User: anonymous   Login
Location: Chmeln�
(49.6483°N, 14.9871°E)
Time: 12:16:56
(UTC+00:00)
Language:

Cosmos 1626 - Orbit

View from above orbital plane
View from above orbital plane
View from above satellite
View from above satellite

Ground track
Ground track

The orbit data is extracted from the following two-line orbital elements,

1 15494U 85009A   20329.84586838 +.00001870 +00000-0 +74951-4 0  9997
2 15494 082.4805 070.3770 0001907 011.8009 348.3273 15.24417200959810
Epoch (UTC): 24 November 2020 20:18:03
Eccentricity: 0.0001907
inclination: 82.4805°
perigee height: 491 km
apogee height: 494 km
right ascension of ascending node: 70.3770°
argument of perigee: 11.8009°
revolutions per day: 15.24417200
mean anomaly at epoch: 348.3273°
orbit number at epoch: 95981

The dashed part of the orbit path shows where the satellite is in the earth's shadow,  

DLR